Location: Praha
(50.0833°N, 14.4667°E)
Time: 16:43:28
(UTC+02:00)

ISS - Visible Passes

Search period start: 25 September 2022 00:00
Search period end: 05 October 2022 00:00
Orbit: 414 x 417 km, 51.6° (Epoch: 25 September)

Date Brightness Start Highest point End Pass type
(mag) Time Alt. Az. Time Alt. Az. Time Alt. Az.
25 Sep -3.7 20:34:10 10° WNW 20:37:32 70° N 20:38:20 47° ENE visible
25 Sep -0.4 22:10:58 10° WNW 22:11:13 12° W 22:11:13 12° W visible
26 Sep -3.5 19:45:29 10° W 19:48:50 65° N 19:51:30 15° E visible
26 Sep -2.2 21:22:17 10° WNW 21:24:23 34° W 21:24:23 34° W visible
27 Sep -3.9 20:33:36 10° WNW 20:36:59 84° SSW 20:37:32 59° ESE visible
28 Sep -3.8 19:44:55 10° WNW 19:48:17 79° NNE 19:50:42 18° E visible
28 Sep -1.7 21:21:46 10° W 21:23:35 24° WSW 21:23:35 24° WSW visible
29 Sep -3.2 20:32:59 10° WNW 20:36:15 48° SSW 20:36:46 43° S visible
30 Sep -3.6 19:44:14 10° WNW 19:47:34 67° SSW 19:50:00 17° ESE visible
30 Sep -1.1 21:21:36 10° W 21:22:53 15° WSW 21:22:53 15° WSW visible
01 Oct -2.0 20:32:29 10° W 20:35:18 25° SW 20:36:10 22° S visible
02 Oct -2.5 19:43:33 10° W 19:46:41 36° SSW 19:49:30 12° SE visible
03 Oct -0.9 20:32:46 10° WSW 20:34:07 12° SW 20:35:26 10° SSW visible
04 Oct -1.2 19:43:11 10° W 19:45:32 18° SW 19:47:55 10° S visible
